Regional Weather Roundup
Issued by NWS Newport/Morehead, NC

Current Version | Previous Version | Graphics & Text | Print | Product List | Glossary On
Versions: 1 2 3 4 5 6 7 8 9 10 11 12 13 14 15 16 17 18 19 20 21 22 23 24 25 26 27 28 29 30 31 32 33 34 35 36 37 38 39 40 41 42 43 44 45 46 47 48 49 50
000
ASUS42 KMHX 191125
RWRMHX
WEATHER ROUNDUP FOR EASTERN NORTH CAROLINA
NATIONAL WEATHER SERVICE NEWPORT/MOREHEAD CITY NC
600 AM EST FRI JAN 19 2018

NOTE: "FAIR" INDICATES FEW OR NO CLOUDS BELOW 12,000 FEET
WITH NO SIGNIFICANT WEATHER AND/OR OBSTRUCTIONS TO VISIBILITY

NCZ015>017-031-032-045>047-102-103-191200-
NORTH COAST

CITY           SKY/WX    TMP DP  RH WIND       PRES   REMARKS
EDENTON        FAIR      33  25  72 CALM      30.19R
ELIZABETH CITY FAIR      25  22  88 SW6       30.16S
KITTY HAWK     FAIR      28  24  83 MISG      30.14F
MANTEO         FAIR      29  23  79 W3        30.17S

$$

NCZ045>047-081-094-103-104-191200-
CENTRAL COAST

CITY           SKY/WX    TMP DP  RH WIND       PRES   REMARKS
FRISCO         FAIR      31  29  92 W3        30.18S

$$

NCZ095-097-098-100-101-191200-
SOUTHERN COAST

CITY           SKY/WX    TMP DP  RH WIND       PRES   REMARKS
BEAUFORT       FAIR      33  22  63 SW6       30.23R
CEDAR ISLAND   NOT AVBL
JACKSONVILLE   FAIR      30  20  66 W5        30.22S
PINEY ISLAND   NOT AVBL
WILMINGTON     FAIR      29  20  69 W5        30.25S


$$

NCZ011>013-027>030-043-044-078>080-089-090>093-098-191200-
COASTAL PLAIN

CITY           SKY/WX    TMP DP  RH WIND       PRES   REMARKS
AHOSKIE        FAIR      24  19  81 CALM      30.18R
CLINTON        FAIR      27  21  80 CALM      30.23S
ELIZABETHTOWN  NOT AVBL
GOLDSBORO      FAIR      28  21  77 W6        30.19S
GREENVILLE     FAIR      28  23  80 CALM      30.21R
HAVELOCK       CLEAR     33  21  61 W5        30.22
KENANSVILLE    FAIR      27  19  74 SW8       30.22S
KINSTON        FAIR      30  23  75 SW5       30.21R
NEW BERN       FAIR      29  21  72 SW5       30.21F
RICHLANDS      FAIR      25  20  81 SW5       30.23R
ROCKY MOUNT    NOT AVBL
WASHINGTON     FAIR      29  22  75 SW3       30.20R
WHITEVILLE     FAIR      29  19  65 SW3       30.24F

$$

AMZ130-135-150-152-154-156-158-170-250-252-270-ANZ085-086-088-633-658-670-191200-
MARINE OBSERVATIONS

STATION/POSITION TIME  TEMP    WIND        PRES    WAVE   SWELL
                       AIR SEA DIR/SP/G            HT/PER HT/PER
                 (UTC) (F)     (DEG/KT/KT) (MB)    (FT/S) (FT/S)
CHESAPEAKE LIGHT NOT AVBL
64 E VA BEACH    1050   44 60  290/  6/ 10 1020.4    5/ 5   5/ 5
DUCK             1100   32 38  240/  8/  9 1020.7
2 E DUCK         1030      39                N/A     2/11   2/11
OREGON INLET     1100   31 34  230/  6/  8 1021.5
13E OREGON INLT  1048      41                N/A     4/11   3/11
HATTERAS CG      1100   35 41  260/  7/  9 1022.1
DIAMOND BUOY     1110   44     290/ 10/ 14 1022.9
CAPE LOOKOUT     1100          260/  9/ 10 1023.6
BEAUFORT LAB     1100   35 42  210/  3/  4 1023.4
30 SE NEW RVR IN 1008   47 57  320/ 14/ 17 1023.9
30 SE NEW RVR IN 1030      57                N/A     4/ 4   2/11
27 SE WRIGHTSVLE 1108   46 59  280/ 16/ 23 1024.0
5 SE WRIGHTSVLE  1008   40 47  280/ 12/ 16 1023.8
225 S CAPE HAT   1050   58 70  310/ 10/ 12 1023.9    9/11   8/11
41 SE CHARLESTON 1110   51 69  270/  8/ 12 1025.5

$$




USA.gov is the U.S. government's official web portal to all federal, state and local government web resources and services.